N828WW -KMCO

Flight info

Callsign N828WW
Flight time N/A
Altitude VFR
Route NORTHEAST
Aircraft BE56/L-DOV/C

Departure

Time N/A
Airport -

Arrival

Time 2026-05-05 01:28
Airport Orlando International Airport (KMCO)
Time Latitude Longitude Altitude Speed Heading
2026-05-05 01:08 28.96500 -80.92716 3504 ft 142 kts 172°
2026-05-05 01:09 28.95423 -80.92579 3538 ft 168 kts 170°
2026-05-05 01:09 28.94204 -80.92410 3539 ft 184 kts 171°
2026-05-05 01:09 28.92954 -80.92009 3540 ft 191 kts 145°
2026-05-05 01:09 28.91705 -80.91436 3523 ft 200 kts 170°
2026-05-05 01:10 28.90314 -80.91654 3519 ft 207 kts 196°
2026-05-05 01:10 28.88964 -80.92255 3524 ft 209 kts 199°
2026-05-05 01:10 28.87608 -80.92875 3522 ft 210 kts 199°
2026-05-05 01:10 28.86244 -80.93499 3518 ft 211 kts 199°
2026-05-05 01:11 28.84880 -80.94134 3511 ft 212 kts 199°
2026-05-05 01:11 28.83512 -80.94774 3507 ft 212 kts 199°
2026-05-05 01:11 28.82148 -80.95414 3492 ft 212 kts 199°
2026-05-05 01:11 28.80796 -80.96041 3493 ft 211 kts 200°
2026-05-05 01:12 28.79431 -80.96663 3495 ft 211 kts 199°
2026-05-05 01:12 28.78069 -80.97290 3494 ft 211 kts 199°
2026-05-05 01:12 28.76707 -80.97922 3496 ft 211 kts 199°
2026-05-05 01:12 28.75346 -80.98555 3493 ft 212 kts 199°
2026-05-05 01:13 28.73980 -80.99193 3497 ft 212 kts 199°
2026-05-05 01:13 28.72614 -80.99826 3495 ft 212 kts 200°
2026-05-05 01:13 28.71253 -81.00461 3490 ft 212 kts 199°
2026-05-05 01:13 28.69893 -81.01100 3493 ft 211 kts 199°
2026-05-05 01:14 28.68530 -81.01733 3496 ft 211 kts 199°
2026-05-05 01:14 28.67166 -81.02362 3494 ft 212 kts 199°
2026-05-05 01:14 28.65799 -81.02995 3495 ft 212 kts 199°
2026-05-05 01:14 28.64432 -81.03640 3497 ft 212 kts 199°
2026-05-05 01:15 28.63069 -81.04288 3496 ft 212 kts 199°
2026-05-05 01:15 28.61702 -81.04936 3493 ft 212 kts 199°
2026-05-05 01:15 28.60357 -81.05577 3495 ft 212 kts 199°
2026-05-05 01:15 28.58996 -81.06222 3495 ft 211 kts 199°
2026-05-05 01:16 28.57637 -81.06863 3496 ft 211 kts 199°
2026-05-05 01:16 28.56280 -81.07501 3494 ft 211 kts 199°
2026-05-05 01:16 28.54923 -81.08142 3497 ft 211 kts 199°
2026-05-05 01:16 28.53567 -81.08784 3496 ft 211 kts 199°
2026-05-05 01:17 28.52208 -81.09427 3495 ft 212 kts 199°
2026-05-05 01:17 28.50838 -81.10070 3427 ft 215 kts 199°
2026-05-05 01:17 28.49447 -81.10729 3326 ft 218 kts 199°
2026-05-05 01:17 28.48045 -81.11396 3218 ft 219 kts 199°
2026-05-05 01:18 28.46638 -81.12064 3111 ft 219 kts 198°
2026-05-05 01:18 28.45231 -81.12734 3008 ft 219 kts 198°
2026-05-05 01:18 28.43823 -81.13412 2902 ft 220 kts 199°
2026-05-05 01:18 28.42417 -81.14098 2795 ft 220 kts 199°
2026-05-05 01:19 28.41011 -81.14790 2693 ft 220 kts 198°
2026-05-05 01:19 28.39607 -81.15489 2585 ft 221 kts 199°
2026-05-05 01:19 28.38205 -81.16189 2490 ft 219 kts 197°
2026-05-05 01:19 28.36742 -81.16455 2389 ft 212 kts 172°
2026-05-05 01:20 28.35271 -81.16319 2210 ft 213 kts 169°
2026-05-05 01:20 28.33800 -81.16162 2017 ft 208 kts 169°
2026-05-05 01:20 28.32447 -81.15936 1766 ft 186 kts 152°
2026-05-05 01:20 28.31604 -81.15003 1524 ft 165 kts 107°
2026-05-05 01:21 28.31693 -81.13775 1297 ft 160 kts 60°
2026-05-05 01:21 28.32604 -81.13091 1073 ft 166 kts 13°
2026-05-05 01:21 28.33719 -81.13251 1012 ft 161 kts 351°
2026-05-05 01:21 28.34640 -81.13881 1004 ft 159 kts 306°
2026-05-05 01:22 28.34851 -81.15074 1003 ft 155 kts 267°
2026-05-05 01:22 28.34808 -81.16296 996 ft 155 kts 268°
2026-05-05 01:22 28.34772 -81.17526 997 ft 156 kts 267°
2026-05-05 01:22 28.34729 -81.18742 1004 ft 152 kts 267°
2026-05-05 01:23 28.34680 -81.19935 1005 ft 150 kts 268°
2026-05-05 01:23 28.34628 -81.21124 1004 ft 151 kts 267°
2026-05-05 01:23 28.34589 -81.22317 1009 ft 151 kts 266°
2026-05-05 01:23 28.34545 -81.23500 1011 ft 149 kts 268°
2026-05-05 01:24 28.34501 -81.24679 1009 ft 150 kts 267°
2026-05-05 01:24 28.34466 -81.25867 1010 ft 152 kts 267°
2026-05-05 01:24 28.34430 -81.27057 1018 ft 149 kts 268°
2026-05-05 01:24 28.34380 -81.28231 1018 ft 148 kts 268°
2026-05-05 01:25 28.34329 -81.29405 1019 ft 150 kts 267°
2026-05-05 01:25 28.34368 -81.30604 1003 ft 153 kts 281°
2026-05-05 01:25 28.34730 -81.31703 1011 ft 148 kts 304°
2026-05-05 01:25 28.35394 -81.32544 1012 ft 136 kts 334°
2026-05-05 01:26 28.36244 -81.32730 1000 ft 126 kts
2026-05-05 01:26 28.37157 -81.32722 904 ft 135 kts
2026-05-05 01:26 28.38106 -81.32674 783 ft 137 kts
2026-05-05 01:26 28.38971 -81.32685 605 ft 113 kts
2026-05-05 01:27 28.39706 -81.32655 431 ft 102 kts
2026-05-05 01:27 28.40414 -81.32671 332 ft 104 kts
2026-05-05 01:27 28.41163 -81.32660 207 ft 109 kts
2026-05-05 01:27 28.41892 -81.32675 99 ft 89 kts
2026-05-05 01:28 28.42311 -81.32673 91 ft 34 kts
2026-05-05 01:28 28.42541 -81.32673 93 ft 34 kts 360°
2026-05-05 01:28 28.42650 -81.32767 94 ft 10 kts 291°
2026-05-05 01:28 28.42652 -81.32777 93 ft 0 kts 271°
2026-05-05 01:29 28.42653 -81.32837 93 ft 21 kts 269°
2026-05-05 01:29 28.42644 -81.32983 92 ft 16 kts 266°
2026-05-05 01:29 28.42651 -81.33027 94 ft 0 kts 359°